Theta_e
308 307 308 307 305 306 306 307 309 309 310 310 314 313 313 313 314 313 315 315 319 321 346 350 350 352 351 349 348 347 341 336 331 328 328 331 336 334 339 342 345 340 331 336
308 309 309 308 306 306 307 307 307 308 309 310 310 313 313 314 314 315 316 314 317 323 341 347 349 350 351 350 349 348 344 339 332 330 334 342 343 338 343 344 345 345 344 337
311 310 309 310 309 309 308 307 308 307 309 310 311 312 314 315 315 316 317 317 315 324 339 344 347 349 350 350 349 348 346 344 336 333 340 343 343 341 344 344 344 344 344 343
312 312 313 313 312 310 310 309 309 308 308 310 312 315 314 316 315 314 314 316 314 322 339 345 346 349 349 348 348 347 347 345 343 340 339 342 344 343 344 345 346 345 346 344
313 312 312 314 314 312 311 308 308 309 309 315 315 316 314 314 316 314 312 316 314 321 338 343 344 345 344 347 347 347 346 344 343 341 342 347 345 344 345 347 345 345 343 333
313 313 313 312 311 311 310 309 309 309 311 314 314 317 315 315 316 316 314 314 314 317 337 339 340 341 344 345 345 346 345 343 342 341 343 347 346 344 343 343 342 339 333 332
313 312 313 313 313 311 309 309 312 314 311 313 312 316 316 314 316 317 315 314 314 315 323 334 338 338 333 335 342 344 343 342 344 341 343 346 343 342 341 340 337 336 331 334
314 313 313 314 313 312 310 310 306 306 309 310 312 320 317 316 316 317 317 317 315 314 317 324 327 325 329 333 339 343 342 342 342 341 344 342 339 336 334 331 330 333 334 335
316 316 314 315 313 312 312 311 308 312 314 316 318 318 318 316 313 312 312 315 314 315 317 319 324 328 330 336 341 344 345 344 342 343 343 340 336 330 329 330 332 334 334 334
311 314 314 314 312 311 312 310 311 311 311 315 321 319 319 316 312 313 312 312 312 322 331 334 335 333 332 337 339 343 345 344 342 340 340 336 330 330 333 333 333 332 332 330
310 310 313 313 314 313 314 313 312 313 318 323 322 320 325 326 318 314 313 313 321 337 340 341 338 336 342 341 343 345 343 342 341 341 339 336 331 332 335 334 334 333 329 320
311 313 316 311 313 312 312 311 312 309 320 323 320 318 327 326 323 312 321 331 337 339 338 336 335 336 341 344 343 343 343 341 340 339 339 335 335 336 336 335 332 325 316 315
312 314 310 309 313 312 312 313 314 314 314 324 323 323 329 322 323 329 336 338 337 334 333 333 334 336 341 341 341 339 339 338 338 338 337 337 336 335 331 329 322 316 314 313
312 314 315 311 310 311 314 316 315 316 317 322 325 333 330 331 332 336 336 335 332 331 330 330 331 334 336 337 336 335 333 333 334 334 333 332 329 327 321 316 314 313 314 313
314 316 313 314 315 316 316 317 316 317 317 323 326 333 333 332 333 335 333 330 328 326 326 327 329 332 334 333 332 330 327 326 325 325 323 320 318 315 314 313 313 313 312 309
311 317 315 316 317 317 317 317 316 318 320 323 322 331 332 331 332 331 329 327 325 323 322 324 326 330 328 326 325 324 322 320 318 317 314 314 313 313 313 313 311 310 309 309
312 315 317 318 317 318 319 319 320 319 320 319 325 330 327 327 327 326 325 323 322 321 321 320 322 325 323 322 320 318 318 315 313 313 313 313 313 312 312 311 310 310 310 310
313 315 315 317 316 317 317 312 316 321 322 323 320 319 317 316 316 318 320 320 319 318 317 319 321 321 320 318 317 314 313 312 312 313 313 313 312 311 310 310 310 310 310 309
307 313 316 315 316 321 317 311 312 314 318 317 316 315 314 314 314 312 313 315 314 315 319 320 319 317 315 314 314 313 313 312 312 312 311 311 310 310 310 310 310 309 309 308
306 307 311 314 316 318 312 308 307 308 317 313 316 316 316 319 314 312 310 313 313 316 317 316 315 315 314 313 313 312 312 311 310 310 309 309 309 309 309 309 310 309 308 307
303 299 308 314 316 316 306 304 307 320 318 316 317 317 316 314 311 309 309 309 312 313 314 313 313 312 312 312 311 311 310 309 308 308 308 308 308 308 308 308 309 308 307 307
303 300 300 306 313 315 303 305 319 312 310 316 312 309 308 307 307 306 305 308 310 311 311 311 311 310 310 310 310 309 309 308 307 307 307 307 307 307 307 307 307 307 307 306
301 301 301 304 305 302 300 304 309 306 309 311 310 308 309 305 303 303 305 306 308 309 309 309 309 309 308 308 309 309 307 307 307 307 307 307 306 306 306 306 306 306 306 305
299 298 301 303 303 300 302 307 310 310 310 310 309 308 307 308 306 305 305 307 308 308 308 308 308 307 307 306 306 305 305 304 305 305 305 305 304 304 305 305 305 304 304 304
299 298 298 301 300 300 302 304 306 307 308 308 307 306 307 310 310 309 307 306 307 307 306 306 306 305 304 304 304 304 303 303 303 303 303 303 303 303 303 303 303 303 303 302
298 299 299 300 297 298 299 303 304 305 304 305 306 306 305 309 308 307 306 306 306 304 303 303 303 303 302 302 301 300 299 300 301 301 300 301 301 301 302 302 301 301 299 297
Wind_Speed
5 4 11 13 10 10 8 12 11 4 8 5 11 7 9 21 15 13 21 16 22 27 35 36 36 35 36 37 34 30 29 29 29 29 29 26 25 23 19 18 15 13 16 19
1 12 17 11 8 12 13 12 17 6 9 12 16 13 8 14 17 16 23 18 24 30 37 35 37 36 34 32 34 34 33 30 33 32 31 28 24 23 21 20 20 19 18 19
14 13 9 12 13 12 14 14 11 9 8 14 12 18 14 15 20 18 25 25 27 39 41 40 39 37 36 37 37 37 37 33 34 34 32 30 23 23 22 22 21 21 21 19
9 4 13 19 19 16 18 10 11 10 9 8 8 6 8 17 15 12 18 24 27 39 41 46 42 40 39 37 37 36 36 36 33 32 33 30 26 24 22 22 20 18 15 15
8 5 7 15 22 20 11 10 11 13 14 3 8 4 7 11 14 10 11 27 26 40 47 48 45 42 39 40 39 39 40 38 35 33 30 26 26 25 21 15 8 10 7 8
20 22 12 15 8 15 10 5 9 13 7 10 12 12 4 9 20 17 8 25 28 39 42 47 45 44 42 40 38 42 43 40 34 31 26 25 25 20 18 14 10 8 7 12
10 10 5 10 9 9 15 9 4 6 5 6 15 9 13 9 13 20 16 23 30 39 42 44 45 42 39 37 38 42 42 38 32 26 27 24 19 11 5 2 5 4 13 2
5 6 6 10 8 7 20 13 5 7 6 7 12 9 7 25 14 17 25 31 30 34 41 43 43 40 39 38 37 37 35 31 27 24 23 19 7 3 4 11 6 12 10 7
4 5 1 11 7 9 12 13 4 2 4 4 5 8 3 10 6 10 18 30 33 36 39 42 41 40 38 35 33 32 29 26 21 20 18 6 14 13 16 10 3 4 10 8
3 6 9 2 6 11 3 9 2 1 2 4 8 13 6 11 9 15 12 17 29 35 35 33 33 32 32 33 32 29 25 23 18 16 14 19 20 8 13 11 9 11 15 7
6 5 4 5 6 7 4 6 2 3 3 3 4 5 3 3 6 19 17 22 31 33 35 37 32 30 32 32 30 27 24 21 18 17 18 23 20 17 19 15 12 14 13 13
4 4 3 5 5 4 6 6 5 4 3 4 3 4 2 7 7 7 11 24 32 37 38 38 36 35 34 32 27 25 20 18 16 16 25 27 26 21 21 18 16 13 13 12
2 3 2 6 2 2 5 8 4 3 2 3 3 3 4 6 7 15 23 31 34 37 41 40 38 39 39 34 30 25 21 21 23 26 26 27 25 24 21 18 17 15 12 9
15 4 3 4 4 3 5 11 6 2 3 6 8 5 7 11 17 17 27 34 34 38 42 43 43 42 40 35 33 30 31 29 30 28 29 29 25 22 21 20 17 14 10 6
5 2 3 9 11 5 7 15 11 6 5 6 10 2 8 13 18 19 32 34 37 37 39 43 47 46 42 40 36 34 34 33 31 29 30 29 28 26 23 19 15 11 7 3
4 3 4 4 2 6 6 11 8 9 13 12 12 4 10 14 24 24 28 34 35 36 38 45 47 47 45 43 40 36 34 30 29 30 31 29 27 24 20 17 14 10 7 5
2 3 3 4 4 9 5 4 1 3 11 4 7 8 19 17 16 18 27 31 37 39 42 44 48 49 44 40 37 35 33 30 28 28 27 25 22 19 15 12 10 8 7 7
4 2 1 1 6 3 4 7 4 2 8 3 13 16 21 23 30 28 29 34 34 41 45 48 49 46 41 37 33 33 31 28 27 26 23 20 17 15 13 11 9 9 8 7
7 4 1 2 3 2 7 10 7 7 7 7 17 19 23 37 41 26 27 34 34 42 51 48 44 42 39 36 33 31 29 27 24 22 18 15 12 12 12 11 11 10 8 8
9 5 2 4 3 3 4 12 17 6 2 10 15 17 20 27 13 7 25 41 42 48 47 46 42 38 35 33 29 28 27 23 20 17 15 14 13 12 12 10 9 8 6 7
6 4 5 5 2 2 6 21 11 1 2 7 12 11 14 11 15 28 30 38 45 45 44 41 39 37 33 29 25 26 23 20 18 16 15 14 13 11 10 9 8 5 3 4
5 4 3 3 2 2 21 20 3 4 12 16 21 28 34 35 35 37 33 41 43 43 41 38 38 34 30 24 21 23 21 18 15 13 13 12 12 11 9 7 7 3 2 3
2 3 3 4 2 9 25 18 23 11 3 20 29 28 45 38 33 34 39 41 42 39 37 34 34 32 27 22 17 19 19 14 11 10 10 11 11 10 9 7 5 3 3 6
3 4 1 3 4 12 20 22 15 17 25 29 29 30 39 47 34 37 38 39 39 35 32 30 29 28 26 19 16 15 14 11 9 10 10 10 8 9 8 7 5 4 5 9
3 8 5 1 4 14 26 24 17 27 28 32 32 31 40 46 37 33 32 33 34 30 27 25 25 24 23 18 16 14 12 10 10 10 12 12 10 8 7 5 4 4 4 5
7 4 3 2 9 5 10 14 18 27 29 31 37 35 32 41 41 35 31 28 29 26 24 24 22 20 19 15 14 12 12 10 10 11 14 13 10 8 6 6 5 6 6 7
Wind_Direction
206 164 221 219 208 240 253 261 260 264 285 332 256 304 289 282 273 275 265 235 224 220 211 209 207 204 201 201 197 199 202 203 202 201 202 202 205 204 199 194 197 198 202 207
332 233 238 233 209 230 241 251 255 265 260 275 282 284 291 269 257 243 253 234 223 213 209 202 205 206 205 204 202 204 206 205 204 203 201 201 203 200 200 203 210 212 219 216
232 234 221 235 232 229 228 232 261 250 269 276 280 283 271 257 245 234 252 249 211 205 201 203 203 206 207 207 207 205 208 208 205 203 204 208 204 205 212 222 230 236 235 223
251 244 246 241 234 220 240 223 237 241 238 248 204 280 236 230 227 217 235 236 194 199 198 202 202 200 205 202 201 203 209 208 208 208 210 215 211 210 219 233 237 236 218 182
243 216 230 237 237 216 231 210 209 227 224 244 246 251 261 222 211 203 222 226 194 191 191 192 193 193 193 196 198 202 206 208 208 209 212 218 214 215 222 208 184 175 166 98
255 259 260 227 221 217 223 186 220 239 204 229 218 211 252 201 203 198 201 208 194 186 186 187 186 187 190 193 197 202 207 210 209 208 210 214 217 209 218 196 153 130 127 137
301 268 204 196 224 228 202 153 179 217 197 224 194 215 245 246 216 202 196 194 189 184 185 184 183 185 186 192 197 203 206 208 206 203 214 210 219 231 196 219 241 209 131 341
285 311 151 169 197 193 188 182 169 184 174 216 238 221 222 240 248 212 187 202 184 182 185 187 186 186 190 193 198 202 204 208 211 214 214 215 190 60 330 24 301 290 211 185
282 253 127 191 192 196 174 212 204 318 207 159 186 245 235 227 189 164 158 185 177 180 183 187 188 190 191 193 196 200 198 198 199 199 207 205 130 118 114 126 213 237 196 234
280 281 266 341 173 212 217 155 188 258 215 190 208 214 215 164 185 161 163 177 167 166 171 171 176 182 185 185 185 189 190 192 190 185 179 153 152 132 152 158 177 191 209 193
244 222 332 129 198 187 205 177 208 148 248 270 175 222 159 151 171 165 175 158 151 146 149 159 161 162 165 171 173 173 177 180 181 181 172 173 168 171 174 177 172 168 177 176
253 276 249 233 10 286 180 161 189 150 230 227 253 245 238 214 200 148 134 138 140 142 142 151 155 158 151 151 157 163 169 169 173 175 164 166 168 167 172 163 154 158 160 160
329 270 357 338 30 19 160 228 173 108 359 294 342 270 28 121 129 140 130 132 135 133 131 139 147 150 144 146 145 146 147 146 145 151 160 159 157 155 151 150 154 154 156 159
225 232 243 223 237 161 186 169 112 94 215 318 275 128 94 127 133 133 127 129 131 126 128 135 135 139 135 137 137 135 132 134 137 143 146 147 146 147 146 143 143 145 147 148
308 247 230 260 256 261 152 154 156 193 236 261 321 129 132 139 140 129 128 126 118 119 123 129 132 135 135 134 133 133 133 135 138 140 139 138 141 143 142 139 140 143 139 117
318 305 345 299 159 181 145 149 191 226 244 230 274 181 111 99 109 115 121 121 118 118 122 128 134 136 133 133 135 135 134 135 138 137 136 137 137 136 136 135 135 138 123 85
281 306 353 344 17 116 80 59 284 10 261 210 236 123 100 95 97 106 114 118 118 121 122 125 130 132 133 133 134 133 132 136 138 135 133 134 136 135 132 128 124 103 86 69
335 296 353 7 345 50 79 21 2 306 338 126 80 98 94 90 81 83 106 115 117 121 124 128 132 131 131 133 133 131 131 136 133 129 131 130 131 127 122 115 106 99 85 73
354 293 62 100 345 3 23 10 353 11 18 58 111 104 103 101 85 54 91 110 115 121 128 128 128 127 130 132 131 131 131 131 131 128 127 126 122 119 119 118 115 101 70 63
1 358 119 56 37 39 24 326 331 351 312 276 126 123 130 123 97 88 101 119 119 124 125 127 129 130 132 129 133 133 130 131 130 131 128 125 122 123 125 122 115 99 74 51
341 4 27 59 66 45 9 326 321 248 36 179 109 82 94 99 111 116 115 115 125 128 129 130 132 130 127 132 138 131 130 128 124 124 125 126 125 128 122 126 131 125 88 50
349 351 345 341 30 59 342 330 329 348 341 119 99 103 96 98 106 111 114 121 129 130 132 134 129 127 129 134 142 130 127 117 121 129 130 126 125 126 121 129 130 113 47 43
30 21 303 353 33 304 306 266 286 292 319 104 116 121 123 107 99 106 116 127 128 129 129 130 127 124 125 129 132 132 118 121 125 128 128 127 126 119 114 118 113 70 27 3
340 42 308 310 319 322 344 27 80 110 107 115 118 122 123 122 123 114 118 124 124 126 127 128 129 126 125 126 126 116 115 119 125 137 137 130 120 112 109 103 89 61 2 344
306 315 307 313 332 332 12 27 70 103 118 122 123 119 125 126 126 131 129 128 125 125 128 132 130 125 122 126 120 114 113 113 125 127 119 118 117 109 106 93 86 42 16 17
337 344 354 356 328 304 344 52 88 99 106 118 129 125 123 135 137 140 134 128 127 129 131 126 124 121 118 121 118 117 116 120 124 132 121 116 116 109 104 90 80 73 70 68